CZ-2C R/B, 61873

Orbit data source: Space-Track

CZ-2C R/B, 61873 is space debris in SSO originally from a launch on Sat, 09 Nov 2024 UTC launched from the Jiuquan Satellite Launch Center, China (JSC). Debris objects in space refer to the collection of defunct objects orbiting the Earth. Examples of debris include non-operational satellites, rocket bodies, and fragments generated from explosions, collisions, or faulty payload assembly.

Loading next visibility...
Identifier
61873, 2024-203E
Orbit
SSO
Last TLE update
7 hours ago
Origin
Manufacturer
BWYIC
Mission
Spacecraft
Bus & Motor
CZ-2 STAGE 2, Unknown motor
Mass
4,006 kg wet, 4,006 kg dry
Launch date (UTC)
2024-11-09 (8 months ago)
Launch vehicle
Unknown
Launch site
Jiuquan Satellite Launch Center, China (JSC)
Object type
Payload
Rocket body
Debris
Shape & HBR
Cyl, 7.49 m
Radar Cross Section
23.715 m², Large (>1 m²)

Expand to show TLE details & history

TLE from 7 hours ago
0 CZ-2C R/B
1 61873U 24203E   25187.60870575  .00007034  00000-0  26558-3 0  9990
2 61873  97.3530 252.8896 0090620  24.9189 335.6382 15.23488250 36382
Epoch: 2025-07-06T14:36Z
TLE epoch observation values (Epoch: 2025-07-06T14:36:32.176Z)
Latitude
-0.00007°
Longitude
108.92559°
Altitude
441.769 km
Speed
7.678 km/s
True Right ascension
16h 51m 33s
True Declination
0° 00' 00"
Sunlit
Object was in full shadow at epoch
Visualization orbit readout
Latitude
-70.90302°
Longitude
-92.52963°
Altitude
562.804 km
Speed
7.556 km/s
Apparent Right ascension
23h 34m 01s
Apparent Declination
-61° 41' 57"
Sunlit
Object is in daylight
Visualization observer readout
Local Sidereal Time
10:01:13
Azimuth
205.266° SW
Elevation
-64.053°
Doppler factor
1
Orbital elements
Apogee altitude
554.547 km
Perigee altitude
430.027 km
Semi-major axis
6,870.424 km
Eccentricity
0.00906
Inclination
97.353°
RAAN
252.8896°
Arg. of periapsis
24.9189°
True anomaly
Unknown
Mean anomaly
335.6382°
Eccentric anomaly
Unknown
Mean motion
3.81125 °/min
Orbital period
94.46 mins
BSTAR
0.00026558
Loading maneuver chart data...
Loading SW <> Apogee altitude chart data...
Loading historical data...
Loading historical data...
Loading historical data...
Loading historical data...
Loading historical data...
Loading historical data...
Loading historical data...
Other satellites on launch #203 in the year 2024 (2024-11-09 UTC)

CZ-2C R/B Visibility forecast

Observer location: undefined°, undefined°

Span
Click to sort rows by Start time (UTC) header in descending order
Start Az.
Max El. time (UTC)
Max El. Az.
Max El.
End time (UTC)
End Az.
4 mins2025-07-07 04:56:10.025Z212.621° SW2025-07-07 04:58:10.025Z274.094° WNW26.714°2025-07-07 05:00:10.025Z320.548° NNW
4 mins2025-07-07 16:25:10.025Z66.391° ENE2025-07-07 16:26:10.025Z86.683° E18.77°2025-07-07 16:29:10.025Z141.18° SSE
5 mins2025-07-07 17:58:10.025Z332.457° NNW2025-07-07 18:00:10.025Z287.989° WNW23.288°2025-07-07 18:03:10.025Z233.725° WSW
|